Manteo, NC

10:11 PM EDT on April 30, 2017 (GMT -0400)
Dare County Regional

Weather History for KMQI - November, 2012

Change the Weather History Date:

Tuesday, November 13, 2012

  Actual Average Record
Temperature  
Mean Temperature 56 °F -  
Max Temperature 64 °F 59 °F 74 °F (1985)
Min Temperature 48 °F 47 °F 34 °F (1976)
Degree Days  
Heating Degree Days 9    
Growing Degree Days 6 (Base 50)    
Moisture  
Dew Point 52 °F    
Average Humidity 88    
Maximum Humidity 94    
Minimum Humidity 82    
Precipitation  
Precipitation 0.00 in - - ()
Sea Level Pressure  
Sea Level Pressure 30.27 in    
Wind  
Wind Speed 8 mph (NNE)    
Max Wind Speed 22 mph    
Max Gust Speed 33 mph    
Visibility 8 miles    
Events Rain    
Averages and records for this station are not official NWS values.
T = Trace of Precipitation, MM = Missing Value Source: NWS Daily Summary

Daily Weather History Graph

Daily Weather History Graph

Search for Another Location

Airport or City:

Trip Planner

Search our weather history database for the weather conditions in past years. The results will help you decide how hot, cold, wet, or windy it might be!

Date:

Astronomy

Nov. 13, 2012 Rise Set
Actual Time 6:37 AM EST 4:56 PM EST
Civil Twilight 6:10 AM EST 5:23 PM EST
Nautical Twilight 5:39 AM EST 5:54 PM EST
Astronomical Twilight 5:09 AM EST 6:24 PM EST
Moon 6:12 AM EST (11/13) 4:48 PM EST (11/13)
Length of Visible Light 11h 13m
Length of Day
10h 18m
Waning Crescent, 0% of the Moon is Illuminated
Nov 13
Waning Crescent
Nov 13
New
Nov 20
First Quarter
Nov 28
Full
Dec 6
Last Quarter

Hourly Weather History & Observations

Time (EST) Temp. Dew Point Humidity Pressure Visibility Wind Dir Wind Speed Gust Speed Precip Events Conditions
12:15 AM 60.8 °F 57.2 °F 88% 30.24 in 10.0 mi South 3.5 mph - N/A   Unknown
12:35 AM 60.8 °F 57.2 °F 88% 30.23 in 10.0 mi South 4.6 mph - N/A   Unknown
12:55 AM 60.8 °F 57.2 °F 88% 30.22 in 10.0 mi Calm Calm - N/A   Unknown
1:15 AM 60.8 °F 57.2 °F 88% 30.22 in 10.0 mi South 5.8 mph - N/A   Unknown
1:35 AM 60.8 °F 55.4 °F 82% 30.22 in 7.0 mi South 9.2 mph - N/A Rain Rain
1:55 AM 62.6 °F 59.0 °F 88% 30.21 in 7.0 mi South 6.9 mph - N/A Rain Rain
2:15 AM 62.6 °F 59.0 °F 88% 30.21 in 10.0 mi South 8.1 mph - N/A   Light Drizzle
2:35 AM 60.8 °F 57.2 °F 88% 30.22 in 10.0 mi SSW 4.6 mph - N/A   Unknown
2:55 AM 60.8 °F 57.2 °F 88% 30.21 in 10.0 mi Calm Calm - N/A   Unknown
3:15 AM 60.8 °F 59.0 °F 94% 30.20 in 10.0 mi Calm Calm - N/A   Unknown
3:35 AM 60.8 °F 59.0 °F 94% 30.20 in 10.0 mi Calm Calm - N/A   Unknown
3:55 AM 60.8 °F 59.0 °F 94% 30.19 in 7.0 mi Calm Calm - N/A   Unknown
4:15 AM 60.8 °F 59.0 °F 94% 30.19 in 7.0 mi Calm Calm - N/A   Unknown
4:35 AM 60.8 °F 59.0 °F 94% 30.20 in 5.0 mi Calm Calm - N/A   Mist
5:15 AM 60.8 °F 59.0 °F 94% 30.20 in 3.0 mi Calm Calm - N/A   Mist
5:55 AM 60.8 °F 59.0 °F 94% 30.20 in 5.0 mi Calm Calm - N/A   Mist
6:15 AM 60.8 °F 59.0 °F 94% 30.20 in 7.0 mi South 3.5 mph - N/A   Unknown
6:35 AM 62.6 °F 59.0 °F 88% 30.21 in 10.0 mi South 5.8 mph - N/A   Unknown
6:55 AM 62.6 °F 59.0 °F 88% 30.22 in 10.0 mi South 6.9 mph - N/A   Unknown
7:15 AM 62.6 °F 59.0 °F 88% 30.22 in 10.0 mi South 4.6 mph - N/A   Unknown
7:35 AM 60.8 °F 59.0 °F 94% 30.23 in 10.0 mi South 6.9 mph - N/A   Unknown
7:55 AM 60.8 °F 59.0 °F 94% 30.24 in 10.0 mi South 10.4 mph - N/A   Unknown
8:15 AM 60.8 °F 59.0 °F 94% 30.24 in 10.0 mi South 5.8 mph - N/A   Unknown
8:35 AM 62.6 °F 59.0 °F 88% 30.24 in 10.0 mi South 3.5 mph - N/A   Unknown
8:55 AM 62.6 °F 60.8 °F 94% 30.24 in 10.0 mi South 6.9 mph - N/A   Unknown
9:15 AM 64.4 °F 60.8 °F 88% 30.24 in 10.0 mi South 4.6 mph - N/A   Unknown
9:35 AM 64.4 °F 59.0 °F 83% 30.24 in 10.0 mi SSW 4.6 mph - N/A   Unknown
9:55 AM 62.6 °F 59.0 °F 88% 30.25 in 10.0 mi SW 4.6 mph - N/A   Unknown
10:15 AM 62.6 °F 59.0 °F 88% 30.24 in 10.0 mi Calm Calm - N/A   Unknown
10:35 AM 55.4 °F 51.8 °F 88% 30.27 in 7.0 mi North 18.4 mph 28.8 mph N/A Rain Light Rain
10:55 AM 53.6 °F 50.0 °F 88% 30.28 in 4.0 mi North 19.6 mph 27.6 mph N/A Rain Light Rain
11:15 AM 53.6 °F 50.0 °F 88% 30.28 in 10.0 mi North 19.6 mph 27.6 mph N/A   Unknown
11:35 AM 53.6 °F 50.0 °F 88% 30.28 in 10.0 mi North 21.9 mph 32.2 mph N/A   Unknown
11:55 AM 51.8 °F 48.2 °F 88% 30.28 in 10.0 mi North 19.6 mph 33.4 mph N/A   Unknown
12:15 PM 51.8 °F 48.2 °F 88% 30.27 in 10.0 mi North 18.4 mph 27.6 mph N/A   Unknown
12:35 PM 51.8 °F 48.2 °F 88% 30.27 in 10.0 mi NNE 19.6 mph 28.8 mph N/A   Unknown
12:55 PM 51.8 °F 48.2 °F 88% 30.27 in 10.0 mi NNE 19.6 mph 28.8 mph N/A   Unknown
1:15 PM 51.8 °F 48.2 °F 88% 30.27 in 10.0 mi NNE 19.6 mph 27.6 mph N/A   Unknown
1:35 PM 51.8 °F 48.2 °F 88% 30.27 in 7.0 mi NNE 17.3 mph 28.8 mph N/A   Light Drizzle
1:55 PM 51.8 °F 46.4 °F 82% 30.26 in 10.0 mi NNE 17.3 mph 26.5 mph N/A   Unknown
2:15 PM 51.8 °F 46.4 °F 82% 30.26 in 10.0 mi NNE 21.9 mph 27.6 mph N/A   Unknown
2:35 PM 51.8 °F 46.4 °F 82% 30.26 in 10.0 mi NNE 20.7 mph 27.6 mph N/A   Unknown
2:55 PM 51.8 °F 46.4 °F 82% 30.26 in 10.0 mi NNE 19.6 mph 27.6 mph N/A   Unknown
3:15 PM 51.8 °F 46.4 °F 82% 30.27 in 10.0 mi NNE 19.6 mph 27.6 mph N/A   Unknown
3:55 PM 50.0 °F 44.6 °F 82% 30.28 in 10.0 mi North 17.3 mph 25.3 mph N/A   Unknown
4:15 PM 50.0 °F 44.6 °F 82% 30.29 in 10.0 mi North 15.0 mph 23.0 mph N/A   Unknown
4:35 PM 50.0 °F 46.4 °F 87% 30.28 in 10.0 mi NNE 16.1 mph 23.0 mph N/A   Unknown
4:55 PM 50.0 °F 46.4 °F 87% 30.28 in 7.0 mi NNE 16.1 mph 23.0 mph N/A   Unknown
5:15 PM 50.0 °F 46.4 °F 87% 30.29 in 7.0 mi North 12.7 mph 19.6 mph N/A   Unknown
5:35 PM 50.0 °F 46.4 °F 87% 30.29 in 7.0 mi NNE 17.3 mph - N/A   Unknown
5:55 PM 51.8 °F 46.4 °F 82% 30.30 in 7.0 mi NNE 15.0 mph - N/A   Unknown
6:15 PM 51.8 °F 46.4 °F 82% 30.30 in 10.0 mi NNE 15.0 mph 21.9 mph N/A   Unknown
6:35 PM 51.8 °F 46.4 °F 82% 30.31 in 7.0 mi NNE 15.0 mph 21.9 mph N/A   Unknown
6:55 PM 50.0 °F 46.4 °F 87% 30.31 in 10.0 mi NNE 18.4 mph 23.0 mph N/A   Unknown
7:15 PM 50.0 °F 46.4 °F 87% 30.32 in 7.0 mi NNE 13.8 mph 19.6 mph N/A   Unknown
7:35 PM 50.0 °F 46.4 °F 87% 30.33 in 10.0 mi North 15.0 mph 23.0 mph N/A   Unknown
7:55 PM 50.0 °F 46.4 °F 87% 30.34 in 7.0 mi NNE 17.3 mph 26.5 mph N/A   Unknown
8:15 PM 50.0 °F 46.4 °F 87% 30.34 in 10.0 mi NNE 11.5 mph 23.0 mph N/A   Unknown
8:35 PM 50.0 °F 46.4 °F 87% 30.35 in 4.0 mi North 11.5 mph 18.4 mph N/A   Mist
8:55 PM 50.0 °F 46.4 °F 87% 30.34 in 4.0 mi North 11.5 mph 19.6 mph N/A   Mist
9:15 PM 50.0 °F 46.4 °F 87% 30.35 in 4.0 mi North 13.8 mph - N/A   Mist
9:35 PM 48.2 °F 44.6 °F 87% 30.35 in 4.0 mi NNE 17.3 mph 24.2 mph N/A   Mist
9:55 PM 48.2 °F 44.6 °F 87% 30.35 in 5.0 mi NNE 16.1 mph 23.0 mph N/A   Mist
10:15 PM 48.2 °F 44.6 °F 87% 30.35 in 7.0 mi North 17.3 mph 23.0 mph N/A   Unknown
10:55 PM 48.2 °F 44.6 °F 87% 30.35 in 10.0 mi NNE 19.6 mph 26.5 mph N/A   Unknown
11:15 PM 48.2 °F 44.6 °F 87% 30.35 in 10.0 mi NNE 19.6 mph 26.5 mph N/A   Light Drizzle
11:55 PM 48.2 °F 44.6 °F 87% 30.35 in 7.0 mi NNE 16.1 mph 21.9 mph N/A   Unknown